www.pogodaiklimat.ru

Погода и климат >> Архив погоды >> Австралия >> Carnarvon Airport


ПОГОДА в Carnarvon Airport

  • Прогноз погоды в Carnarvon Airport
  • Монитор погоды в Carnarvon Airport
  • Климат города

АРХИВ ПОГОДЫ в Carnarvon Airport

Время (UTC), дата Ветер
(напр.,м/с)
 
Видим.   Явления Облачность Т
(С)
Тd
(С)
f
(%)
Тe
(С)
Тes
(С)
Комфортность P
(гПа)
Po
(гПа)
Тmin
(С)
Tmax
(С)
R
(мм)
R24
(мм)
S
(см)
19 10.07 ЮВ 3 4500 м н/о +11.1 +10.6 97 +9 +9 1020.2 1019.7
21 10.07 ЮВ 3 н/о н/о +11.6 +11.4 99 +10 +10 1019.9 1018.9
22 10.07 В 2 2200 м н/о +11.8 +11.8 100 +10 +10 1020.1 1019.6
00 11.07 Ю 2 н/о н/о +13.0 +13.0 100 +12 +12 1021.3 1020.3
01 11.07 В 3 19 км ясно +17.5 +14.6 83 +18 +20 1021.7 1021.2 +10.7
03 11.07 ЮВ 5 н/о н/о +21.7 +11.4 52 +24 +24 комфорт 1021.3 1020.3
04 11.07 ЮВ 5 н/о н/о +22.3 +11.4 50 +24 +24 комфорт 1020.5 1020.0
06 11.07 ЮЗ 7 н/о н/о +21.8 +13.2 58 +24 +24 комфорт 1018.8 1017.8
07 11.07 ЮЗ 6 29 км 1/1
[Cu med, cong]
+21.6 +13.2 59 +24 +26 комфорт 1018.6 1018.1
09 11.07 Ю 7 н/о н/о +20.1 +13.8 67 +22 +22 комфорт 1018.3 1017.3
10 11.07 Ю 4 н/о н/о +18.6 +12.6 68 +19 +19 1018.6 1018.1
12 11.07 Ю 4 н/о н/о +17.6 +13.7 78 +17 +17 1019.3 1018.3
13 11.07 Ю 5 н/о н/о +18.1 +13.8 76 +18 +18 1019.6 1019.1 +23.0
15 11.07 Ю 5 н/о н/о +18.1 +14.8 81 +18 +18 1019.8 1018.8
16 11.07 Ю 5 н/о н/о +16.8 +13.3 80 +16 +16 1019.6 1019.1
18 11.07 Ю 5 н/о н/о +15.4 +12.7 84 +14 +14 1018.8 1017.8
19 11.07 Ю 4 н/о н/о +14.2 +11.0 81 +13 +13 1018.3 1017.8
21 11.07 ЮВ 4 н/о н/о +11.2 +9.5 89 +9 +9 1017.9 1016.9
22 11.07 ЮВ 4 н/о н/о +11.2 +9.6 90 +9 +9 1018.1 1017.6
00 12.07 ЮВ 3 н/о н/о +12.4 +10.5 88 +11 +11 1019.3 1018.3
01 12.07 В 4 19 км 1/1
[Sc]
+16.4 +11.6 73 +16 +18 1019.6 1019.1 +10.2
03 12.07 В 3 н/о н/о +21.1 +10.9 52 +23 +23 комфорт 1019.7 1018.7
04 12.07 Ю 3 н/о н/о +21.8 +11.2 51 +24 +24 комфорт 1018.9 1018.4
06 12.07 ЮЗ 4 н/о н/о +22.0 +9.5 45 +24 +24 комфорт 1017.4 1016.4
07 12.07 З 4 30 км 1/1
[Sc]
+22.0 +11.4 51 +24 +28 комфорт 1017.1 1016.6
09 12.07 ЮЗ 3 н/о н/о +20.7 +12.1 58 +23 +23 комфорт 1017.4 1016.4
10 12.07 ЮЗ 2 н/о н/о +18.5 +13.4 72 +20 +20 1017.6 1017.1
12 12.07 ЮЗ 2 н/о н/о +14.7 +12.4 86 +15 +15 1018.4 1017.4
13 12.07 штиль 0 н/о н/о +14.1 +12.1 88 +14 +14 1018.8 1018.3 +23.0
15 12.07 штиль 0 н/о н/о +13.4 +11.8 90 +13 +13 1018.9 1017.9
16 12.07 штиль 0 н/о н/о +12.0 +10.2 89 +11 +11 1018.8 1018.3
18 12.07 В 2 н/о н/о +11.5 +9.9 90 +10 +10 1018.4 1017.4
19 12.07 В 2 н/о 5/5 600 м
[]
+12.5 +10.6 88 +12 +12 1018.3 1017.8
21 12.07 В 3 н/о н/о +11.3 +8.7 84 +10 +10 1017.9 1016.9
22 12.07 В 2 н/о н/о +11.7 +9.1 84 +11 +11 1018.3 1017.8
00 13.07 В 2 н/о н/о +13.7 +10.7 82 +13 +13 1019.5 1018.5
01 13.07 В 2 19 км 1/0
[Ac As]
+18.9 +10.5 58 +20 +23 1020.1 1019.6 +10.9
03 13.07 В 2 н/о н/о +21.4 +12.3 56 +24 +24 комфорт 1019.8 1018.8
04 13.07 ЮЗ 4 н/о н/о +21.6 +12.5 56 +24 +24 комфорт 1019.2 1018.7
06 13.07 ЮЗ 4 н/о н/о +22.1 +12.4 54 +25 +25 комфорт 1017.9 1016.9
07 13.07 З 4 27 км 4/1
[Sc Ac As]
+21.7 +12.5 56 +24 +27 комфорт 1017.5 1017.0
09 13.07 ЮЗ 5 н/о н/о +20.9 +14.1 65 +24 +24 комфорт 1017.5 1016.5
10 13.07 Ю 8 н/о 1/1 1500 м
[]
+18.0 +16.2 89 +17 +17 1017.9 1017.4
12 13.07 Ю 3 н/о н/о +17.6 +15.9 90 +18 +18 1019.0 1018.0
13 13.07 Ю 4 н/о н/о +17.3 +15.8 91 +17 +17 1019.4 1018.9 +22.9
15 13.07 Ю 4 н/о н/о +16.8 +15.7 93 +16 +16 1019.2 1018.2
16 13.07 Ю 4 н/о 10/10 1500 м
[]
+17.3 +15.6 90 +17 +17 1019.0 1018.5
18 13.07 Ю 3 н/о н/о +13.3 +12.5 95 +12 +12 1018.5 1017.5
19 13.07 ЮВ 2 н/о н/о +12.7 +12.4 98 +12 +12 1018.3 1017.8
21 13.07 ЮВ 2 н/о н/о +12.9 +12.7 99 +12 +12 1017.9 1016.9
22 13.07 ЮВ 2 500 м 1/1 <50 м
[]
+11.9 +11.7 99 +11 +11 1018.0 1017.5
00 14.07 В 2 н/о н/о +12.7 +12.7 100 +12 +12 1018.8 1017.8
01 14.07 В 2 н/о 4/4 1000 м
[]
+16.3 +16.3 100 +17 +19 1019.1 1018.6 +10.6
03 14.07 Ю 3 н/о н/о +19.8 +13.0 65 +22 +22 комфорт 1019.1 1018.1
04 14.07 Ю 3 н/о 10/10 1500 м
[]
+20.5 +12.7 61 +23 +23 комфорт 1018.7 1018.2
06 14.07 ЮЗ 4 н/о н/о +20.9 +13.1 61 +24 +24 комфорт 1017.5 1016.5
07 14.07 ЮЗ 4 н/о н/о +20.2 +13.4 65 +22 +22 комфорт 1017.2 1016.7
09 14.07 Ю 6 н/о н/о +19.7 +13.4 67 +21 +21 комфорт 1017.1 1016.1
10 14.07 Ю 8 н/о н/о +18.0 +14.1 78 +17 +17 1017.2 1016.7
12 14.07 Ю 6 н/о н/о +18.0 +14.5 80 +17 +17 1018.3 1017.3
13 14.07 Ю 6 н/о 1/1 1500 м
[]
+17.1 +14.7 86 +16 +16 1018.9 1018.4 +21.4
15 14.07 Ю 3 н/о н/о +13.9 +12.5 91 +13 +13 1018.9 1017.9
16 14.07 Ю 9 н/о 8/8 1000 м
[]
+18.3 +12.5 69 +18 +18 1018.8 1018.3
18 14.07 Ю 7 н/о н/о +18.1 +10.0 59 +17 +17 1018.4 1017.4
19 14.07 Ю 6 н/о 9/9 1000 м
[]
+17.7 +12.8 73 +17 +17 1018.1 1017.6
21 14.07 ЮВ 3 н/о н/о +12.8 +10.9 88 +12 +12 1017.8 1016.8
22 14.07 Ю 7 н/о 10/10 1000 м
[]
+16.6 +14.1 85 +15 +15 1018.5 1018.0
00 15.07 ЮВ 4 н/о н/о +15.3 +15.1 99 +14 +14 1020.0 1019.0
01 15.07 ЮВ 7 н/о {туман} 9/9 1500 м
[]
+15.9 +14.4 91 +14 +14 1020.8 1020.3 +12.6
03 15.07 ЮВ 7 н/о н/о +18.8 +11.6 63 +19 +19 1020.9 1019.9
04 15.07 ЮВ 7 н/о 10/10 1000 м
[]
+19.6 +10.3 55 +20 +20 1020.6 1020.1
06 15.07 Ю 8 н/о н/о +20.4 +8.7 47 +21 +21 комфорт 1019.4 1018.4
07 15.07 Ю 8 н/о {туман} н/о +19.9 +8.6 48 +20 +20 1019.3 1018.8
09 15.07 Ю 8 н/о н/о +18.3 +8.3 52 +18 +18 1019.1 1018.1
10 15.07 Ю 6 н/о н/о +17.0 +8.9 59 +16 +16 1019.3 1018.8
12 15.07 Ю 4 н/о н/о +14.5 +9.1 70 +13 +13 1020.4 1019.4
13 15.07 Ю 4 н/о н/о +14.3 +9.9 75 +13 +13 1020.6 1020.1 +21.1
15 15.07 Ю 3 н/о н/о +11.3 +8.7 84 +9 +9 1020.1 1019.1
16 15.07 Ю 3 н/о н/о +10.6 +8.9 89 +9 +9 1019.9 1019.4
18 15.07 В 3 н/о н/о +9.6 +8.5 93 +7 +7 1019.7 1018.7
19 15.07 ЮВ 4 н/о н/о +10.0 +9.2 95 +7 +7 1019.4 1018.9
21 15.07 ЮВ 4 н/о н/о +9.7 +8.8 94 +7 +7 1018.7 1017.7
22 15.07 В 3 н/о н/о +8.8 +7.9 94 +6 +6 1018.8 1018.3
00 16.07 В 5 н/о н/о +12.8 +9.4 80 +11 +11 1020.0 1019.0
01 16.07 В 5 16 км 8/3 1500 м
[Sc Ac As]
+16.1 +10.0 67 +15 +16 1020.5 1020.0 +8.6
03 16.07 В 5 н/о н/о +20.2 +9.2 49 +21 +21 комфорт 1020.1 1019.1
04 16.07 В 5 н/о н/о +20.8 +8.8 46 +22 +22 комфорт 1019.6 1019.1
06 16.07 ЮЗ 7 н/о н/о +20.3 +11.2 56 +22 +22 комфорт 1018.3 1017.3
07 16.07 Ю 7 29 км 9/4 1500 м
[Sc Ac As]
+20.1 +11.1 56 +21 +22 комфорт 1017.8 1017.3
09 16.07 Ю 6 н/о н/о +18.7 +11.8 64 +19 +19 1017.6 1016.6
10 16.07 Ю 5 н/о н/о +17.4 +12.5 73 +17 +17 1017.7 1017.2
12 16.07 Ю 3 н/о н/о +15.5 +12.8 84 +15 +15 1018.4 1017.4
13 16.07 Ю 3 н/о н/о +13.5 +11.4 87 +12 +12 1018.6 1018.1 +22.0
15 16.07 Ю 3 н/о н/о +14.4 +13.1 92 +13 +13 1018.3 1017.3
16 16.07 Ю 3 н/о н/о +11.7 +10.1 90 +10 +10 1018.0 1017.5
18 16.07 Ю 3 н/о н/о +10.8 +10.2 96 +9 +9 1017.7 1016.7
19 16.07 Ю 3 н/о н/о +10.1 +9.6 97 +8 +8 1017.6 1017.1
21 16.07 В 3 н/о н/о +11.3 +11.1 99 +10 +10 1017.8 1016.8
22 16.07 В 3 н/о 10/10 1000 м
[]
+12.5 +12.2 98 +11 +11 1018.0 1017.5
00 17.07 В 5 н/о н/о +15.2 +12.9 86 +14 +14 1018.9 1017.9
01 17.07 В 6 19 км 1/1
[Sc]
+17.3 +13.4 78 +16 +18 1019.1 1018.6 +9.9
03 17.07 В 6 н/о н/о +20.7 +11.9 57 +23 +23 комфорт 1019.1 1018.1
04 17.07 В 5 н/о 1/1 1000 м
[]
+22.1 +11.8 52 +24 +30 комфорт 1018.4 1017.9
06 17.07 В 4 н/о н/о +22.4 +9.9 45 +24 +24 комфорт 1016.8 1015.8
07 17.07 Ю 7 28 км 1/1
[Cu hum]
+20.7 +13.2 62 +23 +24 комфорт 1016.3 1015.8
09 17.07 Ю 7 н/о н/о +19.4 +13.8 70 +20 +20 1016.2 1015.2
10 17.07 Ю 6 н/о н/о +18.4 +12.8 70 +18 +18 1016.4 1015.9
12 17.07 Ю 4 н/о н/о +17.0 +14.1 83 +17 +17 1017.5 1016.5
13 17.07 Ю 4 н/о н/о +15.5 +12.8 84 +15 +15 1017.7 1017.2 +23.1
15 17.07 Ю 3 н/о н/о +13.9 +12.3 90 +13 +13 1017.7 1016.7
16 17.07 Ю 4 н/о н/о +14.1 +12.0 87 +13 +13 1017.4 1016.9
18 17.07 ЮВ 5 н/о н/о +14.3 +12.3 88 +13 +13 1017.0 1016.0

 

Местоположение метеостанции Carnarvon Airport (Западная Австралия, Австралия): широта -24.88 долгота 113.66 высота над уровнем моря 8 м.

В архиве по умолчанию представлена погода в Carnarvon Airport за последнюю неделю. Архивные данные за месяц целиком и за предыдущие месяцы, начиная с января 2011 года, Вы можете получить, выбрав интересующий диапазон дат из раскрывающегося списка и нажав кнопку "Ввод!".


*Определитесь, кто Вы:
робот инопланетянин человек

Внимание! Время в таблицах - всемирное. Для получения местного времени необходимо прибавить поправку, которая в Carnarvon Airport равна 8 ч.

Смотрите также архив погоды в соседних городах и на ближайших метеорологических станциях:

Погода в Shark Bay Airport (Западная Австралия, Австралия) (114 км)
Погода в Learmonth Airport (Западная Австралия, Австралия) (298 км)
Погода в Onslow Airport (Западная Австралия, Австралия) (387 км)
Погода в Thevenard Island (Западная Австралия, Австралия) (406 км)
Погода в Geraldton Airport (Западная Австралия, Австралия) (448 км)
Погода в Paraburdoo Aero (Западная Австралия, Австралия) (457 км)
Погода в Mardie (Западная Австралия, Австралия) (475 км)
Погода в Barrow Island Airport (Западная Австралия, Австралия) (479 км)
Погода в Varanus Island (Западная Австралия, Австралия) (510 км)
Погода в Meekatharra Airport (Западная Австралия, Австралия) (526 км)

Пояснения к столбцам:

Ветер - указаны скорость ветра в м/с - средняя за 10 мин, порывы в срок и между сроками (в фигурных скобках) и направление, откуда дует ветер: С - северный, СВ - северо-восточный, В - восточный, ЮВ - юго-восточный, Ю - южный, ЮЗ - юго-западный, З - западный, СЗ - северо-западный.
Видимость - горизонтальная дальность видимости в метрах или километрах. При видимости от 1 до 10 км при отсутствии осадков обычно наблюдается дымка, при ухудшении видимости до 1 км и менее - туман. В сухую погоду видимость может ухудшаться дымом, пылью или мглою.
Явления - указаны атмосферные явления, наблюдавшиеся в срок или в последний час перед сроком; фигурными скобками обозначены явления, наблюдавшиеся между сроками (за 1-3 часа до срока); квадратными скобками обозначены град или гололедные отложения с указанием их диаметра в мм.
Облачность - указаны через наклонную черту общая и нижняя облачность в баллах и высота нижней границы облаков в метрах; квадратными скобками обозначены формы облаков: Ci - перистые, Cs - перисто-слоистые, Cc - перисто-кучевые, Ac - высококучевые, As - высокослоистые, Sc - слоисто-кучевые, Ns - слоисто-дождевые, Cu - кучевые, Cb - кучево-дождевые. Подробнее классификацию облаков см. в Атласе облаков (PDF).
T - Температура воздуха - температура, измеренная на высоте 2 м над землей.
Td - Температура точки росы - температура, при понижении до которой содержащийся в воздухе водяной пар достигнет насыщения.
f - Относительная влажность воздуха - влажноcть воздуха, измеренная на высоте 2 м над землей.
Te - Эффективная температура - температура, которую ощущает одетый по сезону человек в тени. Характеристика душности погоды. При расчете учитывается влияние влажности воздуха и скорости ветра на теплоощущения человека.
Tes - Эффективная температура на солнце - температура, которую ощущает человек, с поправкой на солнечный нагрев. Характеристика знойности погоды. Зависит от высоты солнца над горизонтом, облачности и скорости ветра. Ночью, в пасмурную погоду, а также при ветре 12 м/с и более поправка равна нулю.
P - Атмосферное давление - приведенное к уровню моря атмосферное давление.
Po - Атмосферное давление - измеренное на уровне метеостанции атмосферное давление.
Tmin - Минимальная температура - минимум температуры воздуха на высоте 2 м над землей.
Tmax - Максимальная температура - максимум температуры воздуха на высоте 2 м над землей.
R - Количество осадков - Количество выпавших осадков за период времени, мм. При наведении курсора мыши на число - период времени, за который выпало указанное количество осадков.
R24 - Количество осадков - Количество выпавших осадков за 24 часа, мм.
S - Снежный покров - Высота снежного покрова, см. При наведении курсора мыши на число - состояние снежного покрова и степень покрытия местности в баллах.